Regional Weather Roundup
Issued by NWS New Orleans/Baton Rouge, LA

Home | Current Version | Previous Version | Graphics & Text | Print | Product List | Glossary On
Versions: 1 2 3 4 5 6 7 8 9 10 11 12 13 14 15 16 17 18 19 20 21 22 23 24 25 26 27 28 29 30 31 32 33 34 35 36 37 38 39 40 41 42 43 44 45 46 47 48 49 50
401
ASUS44 KLIX 301810
RWRLIX
NEW ORLEANS REGIONAL WEATHER ROUNDUP
NATIONAL WEATHER SERVICE NEW ORLEANS LA
100 PM CDT WED JUL 30 2014

NOTE: "FAIR" INDICATES FEW OR NO CLOUDS BELOW 12,000 FEET WITH NO
      SIGNIFICANT WEATHER AND/OR OBSTRUCTIONS TO VISIBILITY.
      SKY/WX - SKY CONDITION AND SIGNIFICANT WEATHER.
      TMP - AIR TEMPERATURE.     DP    - DEWPOINT TEMPERATURE.
      RH  - RELATIVE HUMIDITY.   PRES  - PRESSURE.
      HI  - HEAT INDEX.          WCI   - WIND CHILL INDEX.

*  THESE STATIONS ARE NOT NWS OR FAA STATIONS AND ARE NOT UNDER
   NWS QUALITY CONTROL.

LAZ038-040-048-061>063-065>067-069-301900-
SOUTHEAST LOUISIANA

CITY           SKY/WX    TMP DP  RH WIND       PRES   REMARKS
N.O. AUDUBON     N/A     90  64  42 MISG        N/A
6HR MIN TEMP:  76; 6HR MAX TEMP:  90;

N.O. INTL ARPT PTSUNNY   85  62  46 N7G17     30.06F
6HR MIN TEMP:  74; 6HR MAX TEMP:  86;

N.O. LAKEFRONT   N/A     83  61  47 N6        30.06F
6HR MIN TEMP:  75; 6HR MAX TEMP:  84;

N.O. DOWNTOWN*   N/A     84  57  39 NW7       30.06F
6HR MIN TEMP:  73; 6HR MAX TEMP:  84;

SLIDELL          N/A     84  60  44 N8        30.05F
6HR MIN TEMP:  66; 6HR MAX TEMP:  84;

BATON ROUGE      N/A     85  62  46 NW3       30.07F
6HR MIN TEMP:  68; 6HR MAX TEMP:  85;

BOOTHVILLE       N/A     84  70  62 VRB7      30.06S
6HR MIN TEMP:  79; 6HR MAX TEMP:  84;

BELLE CHASSE   PTSUNNY   86  62  44 VRB3      30.05F
6HR MIN TEMP:  73; 6HR MAX TEMP:  86;

BOGALUSA*        N/A     83  58  42 CALM      30.08F
6HR MIN TEMP:  65; 6HR MAX TEMP:  83;

GALLIANO*      NOT AVBL
NEW ROADS*       N/A     82  62  51 CALM      30.07F
6HR MIN TEMP:  68; 6HR MAX TEMP:  82;

GONZALES*        N/A     83  63  51 CALM      30.05F
6HR MIN TEMP:  69; 6HR MAX TEMP:  83;

HAMMOND*         N/A     86  57  37 CALM      30.08F
HOUMA*         MOSUNNY   88  64  45 NW6       30.05F
PORT FOURCHON* MOCLDY    84  70  61 E6        30.06F

$$

MSZ070-080>082-301900-
SOUTHERN MISSISSIPPI

CITY           SKY/WX    TMP DP  RH WIND       PRES   REMARKS
MCCOMB           N/A     81  56  42 N5        30.08F
6HR MIN TEMP:  66; 6HR MAX TEMP:  82;

GULFPORT         N/A     87  58  37 NW8       30.03F
6HR MIN TEMP:  72; 6HR MAX TEMP:  88;

BILOXI           N/A     85  59  42 N5        30.04F
6HR MIN TEMP:  69; 6HR MAX TEMP:  85;

PASCAGOULA       N/A     85  59  41 N6        30.04F
6HR MIN TEMP:  68; 6HR MAX TEMP:  85;

STENNIS ARPT*  MOSUNNY  N/A N/A N/A N10       30.05F

$$

COASTAL OBSERVATIONS
LAKE AND NEARSHORE STATIONS

STATION/POSITION TIME  TEMP    WIND        PRES    WAVE
                       AIR SEA DIR/SP/G            HT/PER
                 (UTC) (F)     (DEG/KT/KT) (MB)    (FT/S)
PASCAGOULA       1800   85     300/  7/ 12 1016.6
WAVELAND YACHT   1800   81     350/  4/  9 1016.8
GRAND ISLE       1800   84 86   30/  5/  8 1018.3
SOUTHWEST PASS   1800   93 85   40/  3/  5 1017.7
NEW CANAL        1800   79 83   10/  7/  9 1018.4
SHELL BEACH      1800   79 80   10/  7/  8 1017.6

OFFSHORE STATIONS

STATION/POSITION TIME  TEMP    WIND        PRES    WAVE
                       AIR SEA DIR/SP/G            HT/PER
                 (UTC) (F)     (DEG/KT/KT) (MB)    (FT/S)
64 S DAUPHIN ISL 1713   81 87   40/  4/  6 1017.3

$$




USA.gov is the U.S. government's official web portal to all federal, state and local government web resources and services.